Location: Étang Rond
(42.7927°N, 1.0661°E)
Time: 22:57:54
(UTC+00:00)

NOSS 2-1 (E) - Pass Details

Date: 08 November 2025
Orbit: 385 x 1749 km, 63.3° (Epoch: 07 May)

Event Time Altitude Azimuth Distance (km) Brightness Sun altitude
Exits shadow 05:18:52 27° 308° (NW) 887 3.9 -14.9°
Maximum altitude 05:18:58 27° 311° (NW) 883 3.9 -14.9°
Drops below altitude 10° 05:21:45 10° 13° (NNE) 1,471 5.5 -14.4°
Sets 05:23:51 0° 26° (NNE) 2,289 6.7 -14.0°
